Theta_e
318 318 317 319 320 316 317 318 318 319 316 314 312 310 309 309 309 309 308 308 308 309 309 308 306 305 303 300 300 301 309 314
313 314 312 314 315 315 319 315 319 318 315 314 312 309 308 307 306 305 305 304 304 302 301 299 299 299 299 299 299 300 303 311
312 311 311 311 313 316 318 318 319 316 314 314 311 309 306 304 302 301 300 299 298 298 298 298 299 299 299 299 299 299 299 300
312 311 309 309 311 314 319 319 317 314 314 312 310 308 304 301 299 297 297 297 297 298 298 298 298 298 298 298 298 298 298 298
311 310 308 307 309 311 314 316 315 313 312 310 309 306 302 298 297 296 296 297 297 297 297 297 297 297 297 297 297 297 297 297
311 310 309 307 306 308 310 312 313 312 310 309 307 305 300 297 296 296 296 296 297 296 296 296 296 297 297 296 296 296 296 296
311 310 308 307 305 305 306 309 310 310 309 307 304 302 298 296 296 296 296 296 296 296 295 296 296 296 296 295 295 295 295 295
311 310 308 307 305 304 303 305 306 307 307 305 301 299 297 296 296 296 296 295 295 295 295 295 295 295 295 294 294 295 294 294
311 310 309 307 306 304 303 302 303 303 304 301 299 298 296 296 295 295 296 295 295 295 295 294 294 294 294 294 294 294 294 294
311 310 310 308 306 305 303 301 301 301 301 299 298 296 295 295 295 295 295 295 295 295 294 294 294 294 294 294 294 294 293 293
310 310 310 308 306 305 303 300 300 300 299 298 297 296 295 295 295 295 295 295 294 294 294 294 294 294 294 293 293 293 293 293
309 310 310 308 306 305 303 300 299 299 299 297 296 295 295 295 295 295 295 294 294 294 294 294 294 294 293 293 293 293 293 292
308 309 309 307 306 305 303 300 299 299 298 297 296 295 295 295 295 295 294 294 294 294 294 294 294 293 293 293 293 292 292 292
307 309 309 308 306 305 304 301 298 297 296 296 296 295 295 295 295 294 294 294 294 294 294 294 294 293 293 292 292 292 292 292
306 307 308 307 306 305 304 302 299 297 297 296 296 296 295 295 294 294 294 294 294 294 294 294 294 293 292 292 292 292 292 291
306 307 308 307 306 306 305 302 300 298 297 297 296 296 295 295 294 294 294 294 294 294 294 294 293 293 292 292 292 292 291 291
306 307 308 307 307 306 305 303 300 298 297 297 296 296 295 295 294 294 294 294 294 294 294 294 293 293 292 292 292 292 291 291
306 307 308 308 307 307 306 304 300 299 298 297 296 296 296 295 294 294 294 294 294 294 294 294 293 293 292 292 292 291 291 290
308 308 309 309 308 308 306 305 302 299 299 297 297 296 296 295 295 295 294 294 294 294 294 293 293 292 292 292 292 291 291 290
Wind_Speed
17 15 12 9 11 13 9 6 8 5 3 2 3 3 4 4 4 5 6 6 6 6 6 7 7 6 6 8 8 6 4 7
15 16 12 11 12 13 15 17 12 8 5 3 3 3 5 5 6 7 7 8 8 9 10 10 10 10 11 11 12 10 7 6
16 14 14 13 14 17 17 16 14 11 6 1 2 4 5 6 8 8 10 10 10 11 12 12 13 13 12 14 15 16 17 7
23 19 16 15 16 16 16 15 14 10 6 2 4 5 5 7 8 8 11 11 11 12 12 13 13 13 15 17 18 18 19 18
24 21 18 16 17 17 17 17 16 11 7 4 4 4 5 7 8 10 11 11 10 11 12 13 13 16 16 18 19 19 18 19
26 23 20 19 16 16 17 18 14 13 10 5 3 4 5 7 10 10 11 11 11 11 13 13 14 16 17 17 17 18 19 20
28 23 21 19 18 16 16 17 15 13 9 5 5 6 8 11 11 10 10 10 11 11 12 13 13 15 16 17 18 18 20 20
32 30 27 22 21 18 17 17 16 15 12 8 8 9 12 12 12 11 10 10 10 11 11 11 11 14 16 16 16 17 19 20
36 33 30 26 22 18 18 18 17 15 14 12 11 13 14 13 11 11 10 9 9 9 8 8 11 13 15 15 16 16 18 18
42 38 33 28 23 20 18 18 17 17 16 14 15 14 13 12 12 10 9 8 8 8 7 8 10 11 12 14 15 16 18 18
40 41 37 30 24 21 18 17 17 17 16 15 15 15 14 13 12 11 9 8 8 7 6 7 8 9 11 13 15 16 16 17
41 42 38 31 27 23 20 20 19 20 19 18 16 16 14 13 12 11 9 8 7 5 5 5 6 7 10 13 14 15 15 17
34 42 40 36 32 28 24 22 22 21 20 19 18 16 15 14 12 11 9 8 6 5 4 4 5 7 9 12 13 14 15 17
32 41 44 40 36 31 26 24 23 22 20 20 19 17 16 14 13 11 10 8 5 4 3 3 4 6 9 12 14 15 17 19
32 38 43 42 38 34 29 26 24 23 22 21 20 18 16 14 13 12 10 8 6 4 2 1 3 6 9 11 13 14 17 19
33 40 44 44 41 36 30 27 26 25 24 23 21 19 17 16 15 13 11 9 7 5 3 1 3 6 8 10 12 15 17 19
34 40 46 46 42 38 34 30 29 27 26 23 22 21 19 17 16 14 11 10 8 6 3 2 3 5 8 10 13 15 17 20
35 41 48 49 44 39 36 32 30 29 27 25 24 22 21 19 17 15 13 11 9 6 4 3 4 5 8 11 13 15 18 20
36 41 48 49 45 40 36 33 31 30 29 27 26 24 22 21 19 17 14 12 9 7 5 4 4 6 9 11 13 15 17 20
Wind_Direction
170 174 182 190 171 181 192 218 230 212 180 128 80 73 71 79 85 88 80 73 66 54 54 52 50 54 59 53 45 59 113 125
170 165 174 183 183 193 211 211 208 190 178 125 61 66 88 94 99 88 85 83 81 78 77 78 78 78 74 73 66 67 105 125
175 171 167 172 179 180 182 189 195 190 190 156 101 94 105 104 97 104 94 87 88 87 82 79 76 75 77 75 74 74 72 79
185 180 177 177 181 181 186 189 194 197 189 170 117 93 118 122 114 106 103 100 95 90 85 81 80 79 73 70 66 66 69 69
189 181 181 182 180 177 187 193 201 196 199 159 110 115 125 129 122 119 111 107 101 95 88 80 76 74 71 66 63 62 62 63
195 192 189 183 183 182 186 194 198 205 201 169 123 156 148 148 137 128 121 114 108 96 84 75 68 66 65 63 61 59 56 53
199 195 189 186 185 184 188 190 195 202 205 198 170 161 160 155 145 139 130 122 112 96 83 72 66 64 63 58 54 51 49 45
197 196 193 195 193 188 189 192 194 197 205 200 181 171 163 156 150 147 138 123 109 101 87 76 69 64 61 57 51 48 44 40
200 198 197 197 194 191 192 194 197 194 199 194 183 173 167 158 156 150 139 127 116 104 99 84 69 61 56 51 47 43 41 35
201 199 199 197 194 196 194 193 195 192 191 189 179 174 167 167 161 153 145 140 125 111 103 83 65 57 51 47 43 39 37 29
197 197 197 195 195 194 190 193 193 188 184 181 181 179 173 172 167 158 151 139 121 111 99 77 60 51 44 40 36 34 29 22
194 195 196 194 193 192 188 188 188 186 181 183 184 182 175 177 173 160 153 144 134 121 99 79 62 46 37 34 30 27 21 16
190 193 192 192 193 190 189 188 188 189 189 187 185 184 183 180 174 167 163 159 155 139 109 79 55 40 32 27 24 20 15 12
185 192 194 193 193 191 189 190 189 190 191 189 188 187 185 182 178 176 176 173 162 145 112 71 44 30 25 21 17 12 10 10
185 190 193 195 195 193 191 191 192 193 192 192 191 189 187 185 184 184 183 180 176 170 153 51 24 21 19 14 8 6 7 6
189 191 194 196 195 194 194 194 193 195 195 195 192 191 191 191 190 189 190 189 187 188 195 293 3 9 11 5 0 3 6 3
193 195 196 197 197 195 196 195 196 196 197 196 194 195 195 195 194 194 195 197 198 200 209 275 332 352 357 359 359 1 1 358
194 195 198 201 200 198 198 197 197 199 198 197 198 198 198 198 197 198 200 202 203 206 219 258 306 335 351 355 356 359 357 354
200 201 202 203 202 201 200 200 200 201 200 199 200 200 199 200 201 200 203 205 206 212 229 257 297 329 344 350 354 355 352 351